Time,TemperatureF,DewpointF,PressureIn,WindDirection,WindDirectionDegrees,WindSpeedMPH,WindSpeedGustMPH,Humidity,HourlyPrecipIn,Conditions,Clouds,dailyrainin,SoftwareType,DateUTC
2013-03-15 00:02:00,55.8,45.7,30.13,West,259,4.0,6.0,69,0.00,,,0.00,meteohub,2013-03-15 07:02:00,
2013-03-15 00:22:00,55.2,46.0,30.13,NNW,328,4.0,6.0,71,0.00,,,0.00,meteohub,2013-03-15 07:22:00,
2013-03-15 00:42:00,54.9,46.0,30.13,WNW,293,0.0,4.0,72,0.00,,,0.00,meteohub,2013-03-15 07:42:00,
2013-03-15 01:02:00,55.2,47.1,30.13,WNW,294,3.0,0.0,74,0.00,,,0.00,meteohub,2013-03-15 08:02:00,
2013-03-15 01:22:00,55.6,47.5,30.13,ESE,108,3.0,4.0,74,0.00,,,0.00,meteohub,2013-03-15 08:22:00,
2013-03-15 01:42:00,55.6,47.5,30.13,ESE,117,3.0,4.0,74,0.00,,,0.00,meteohub,2013-03-15 08:42:00,
2013-03-15 02:02:00,55.4,47.3,30.13,ENE,65,0.0,5.0,74,0.00,,,0.00,meteohub,2013-03-15 09:02:00,
2013-03-15 02:22:00,55.2,47.5,30.13,North,7,0.0,4.0,75,0.00,,,0.00,meteohub,2013-03-15 09:22:00,
2013-03-15 02:42:00,55.4,48.0,30.10,SE,126,4.0,4.0,76,0.00,,,0.00,meteohub,2013-03-15 09:42:00,
2013-03-15 03:02:00,55.4,48.0,30.10,ESE,115,0.0,4.0,76,0.00,,,0.00,meteohub,2013-03-15 10:02:00,
2013-03-15 03:22:00,55.6,48.6,30.10,ESE,115,3.0,4.0,77,0.00,,,0.00,meteohub,2013-03-15 10:22:00,
2013-03-15 03:42:00,55.6,48.6,30.10,NE,36,3.0,5.0,77,0.00,,,0.00,meteohub,2013-03-15 10:42:00,
2013-03-15 04:02:00,55.4,48.0,30.07,North,357,0.0,4.0,76,0.00,,,0.00,meteohub,2013-03-15 11:02:00,
2013-03-15 04:22:00,55.4,48.4,30.10,North,357,0.0,0.0,77,0.00,,,0.00,meteohub,2013-03-15 11:22:00,
2013-03-15 04:42:00,55.2,47.8,30.10,NNW,336,0.0,7.0,76,0.00,,,0.00,meteohub,2013-03-15 11:42:00,
2013-03-15 05:02:00,55.0,47.7,30.10,NW,308,0.0,4.0,76,0.00,,,0.00,meteohub,2013-03-15 12:02:00,
2013-03-15 05:22:00,54.7,46.9,30.10,NNW,334,0.0,4.0,75,0.00,,,0.00,meteohub,2013-03-15 12:22:00,
2013-03-15 05:42:00,54.7,47.3,30.10,North,0,0.0,0.0,76,0.00,,,0.00,meteohub,2013-03-15 12:42:00,
2013-03-15 06:02:00,54.7,47.3,30.10,NW,312,0.0,4.0,76,0.00,,,0.00,meteohub,2013-03-15 13:02:00,
2013-03-15 06:22:00,54.9,47.5,30.10,ENE,66,0.0,4.0,76,0.00,,,0.00,meteohub,2013-03-15 13:22:00,
2013-03-15 06:42:00,54.9,47.5,30.10,NE,40,3.0,5.0,76,0.00,,,0.00,meteohub,2013-03-15 13:42:00,
2013-03-15 07:02:00,54.9,47.5,30.10,NE,53,4.0,4.0,76,0.00,,,0.00,meteohub,2013-03-15 14:02:00,
2013-03-15 07:22:00,55.0,47.7,30.10,NE,49,4.0,4.0,76,0.00,,,0.00,meteohub,2013-03-15 14:22:00,
2013-03-15 07:42:00,55.2,47.8,30.10,ENE,71,3.0,4.0,76,0.00,,,0.00,meteohub,2013-03-15 14:42:00,
2013-03-15 08:02:00,55.4,47.7,30.10,ESE,115,0.0,5.0,75,0.00,,,0.00,meteohub,2013-03-15 15:02:00,
2013-03-15 08:22:00,56.3,49.1,30.13,ESE,115,0.0,0.0,77,0.00,,,0.00,meteohub,2013-03-15 15:22:00,
2013-03-15 08:42:00,56.7,48.7,30.10,WSW,251,0.0,5.0,75,0.00,,,0.00,meteohub,2013-03-15 15:42:00,
2013-03-15 09:02:00,57.0,49.1,30.13,ESE,119,0.0,4.0,75,0.00,,,0.00,meteohub,2013-03-15 16:02:00,
2013-03-15 09:22:00,57.2,46.8,30.13,SSW,209,2.0,5.0,68,0.00,,,0.00,meteohub,2013-03-15 16:22:00,
2013-03-15 09:42:00,57.2,44.8,30.13,SW,222,4.0,7.0,63,0.00,,,0.00,meteohub,2013-03-15 16:42:00,
2013-03-15 10:02:00,58.8,40.3,30.13,SSW,195,4.0,7.0,50,0.00,,,0.00,meteohub,2013-03-15 17:02:00,
2013-03-15 10:22:00,57.4,36.7,30.13,SSW,209,5.0,6.0,46,0.00,,,0.00,meteohub,2013-03-15 17:22:00,
2013-03-15 10:42:00,56.8,38.5,30.13,South,173,6.0,6.0,50,0.00,,,0.00,meteohub,2013-03-15 17:42:00,
2013-03-15 11:02:00,57.2,38.3,30.13,SW,216,4.0,8.0,49,0.00,,,0.00,meteohub,2013-03-15 18:02:00,
2013-03-15 11:22:00,60.1,40.3,30.13,SSE,156,3.0,8.0,48,0.00,,,0.00,meteohub,2013-03-15 18:22:00,
2013-03-15 11:42:00,59.7,35.4,30.13,SSW,210,4.0,9.0,40,0.00,,,0.00,meteohub,2013-03-15 18:42:00,
2013-03-15 12:02:00,60.6,34.9,30.13,South,191,5.0,10.0,38,0.00,,,0.00,meteohub,2013-03-15 19:02:00,
2013-03-15 12:22:00,60.1,34.3,30.13,SSW,209,3.0,11.0,38,0.00,,,0.00,meteohub,2013-03-15 19:22:00,
2013-03-15 12:42:00,60.3,34.5,30.13,South,179,7.0,9.0,38,0.00,,,0.00,meteohub,2013-03-15 19:42:00,
2013-03-15 13:02:00,60.1,35.1,30.13,South,189,6.0,9.0,39,0.00,,,0.00,meteohub,2013-03-15 20:02:00,
2013-03-15 13:22:00,60.6,34.9,30.10,WSW,239,5.0,12.0,38,0.00,,,0.00,meteohub,2013-03-15 20:22:00,
2013-03-15 13:42:00,61.9,34.7,30.10,SSW,204,6.0,9.0,36,0.00,,,0.00,meteohub,2013-03-15 20:42:00,
2013-03-15 14:02:00,61.2,34.7,30.10,WSW,245,4.0,8.0,37,0.00,,,0.00,meteohub,2013-03-15 21:02:00,
2013-03-15 14:22:00,60.6,34.9,30.07,SW,232,4.0,9.0,38,0.00,,,0.00,meteohub,2013-03-15 21:22:00,
2013-03-15 14:42:00,60.1,35.6,30.07,WSW,242,3.0,9.0,40,0.00,,,0.00,meteohub,2013-03-15 21:42:00,
2013-03-15 15:02:00,59.4,35.1,30.07,SW,214,6.0,9.0,40,0.00,,,0.00,meteohub,2013-03-15 22:02:00,
2013-03-15 15:22:00,58.1,36.3,30.07,West,265,5.0,10.0,44,0.00,,,0.00,meteohub,2013-03-15 22:22:00,
2013-03-15 15:42:00,58.3,35.2,30.07,West,273,9.0,9.0,42,0.00,,,0.00,meteohub,2013-03-15 22:42:00,
2013-03-15 16:02:00,57.9,36.7,30.07,WSW,243,7.0,9.0,45,0.00,,,0.00,meteohub,2013-03-15 23:02:00,
2013-03-15 16:22:00,57.0,37.0,30.07,SW,224,8.0,10.0,47,0.00,,,0.00,meteohub,2013-03-15 23:22:00,
2013-03-15 16:42:00,56.5,37.0,30.07,SW,233,6.0,8.0,48,0.00,,,0.00,meteohub,2013-03-15 23:42:00,
2013-03-15 17:02:00,56.3,37.4,30.07,SW,231,6.0,8.0,49,0.00,,,0.00,meteohub,2013-03-16 00:02:00,
2013-03-15 17:22:00,56.3,38.5,30.07,SW,232,6.0,9.0,51,0.00,,,0.00,meteohub,2013-03-16 00:22:00,
2013-03-15 17:42:00,55.2,38.8,30.07,South,188,6.0,8.0,54,0.00,,,0.00,meteohub,2013-03-16 00:42:00,
2013-03-15 18:02:00,55.0,40.5,30.04,SW,227,4.0,6.0,58,0.00,,,0.00,meteohub,2013-03-16 01:02:00,
2013-03-15 18:22:00,54.5,41.4,30.04,WSW,239,3.0,7.0,61,0.00,,,0.00,meteohub,2013-03-16 01:22:00,
2013-03-15 18:42:00,54.7,42.8,30.04,South,180,5.0,6.0,64,0.00,,,0.00,meteohub,2013-03-16 01:42:00,
2013-03-15 19:02:00,53.6,42.4,30.04,SW,236,4.0,8.0,66,0.00,,,0.00,meteohub,2013-03-16 02:02:00,
2013-03-15 19:22:00,53.4,44.6,30.07,SW,226,6.0,6.0,72,0.00,,,0.00,meteohub,2013-03-16 02:22:00,
2013-03-15 19:42:00,53.8,46.4,30.07,WSW,247,6.0,8.0,76,0.00,,,0.00,meteohub,2013-03-16 02:42:00,
2013-03-15 20:02:00,53.6,47.7,30.04,WSW,246,8.0,8.0,80,0.00,,,0.00,meteohub,2013-03-16 03:02:00,
2013-03-15 20:22:00,53.6,47.8,30.07,SW,234,5.0,8.0,81,0.00,,,0.00,meteohub,2013-03-16 03:22:00,
2013-03-15 20:42:00,53.6,48.2,30.07,SW,232,6.0,9.0,82,0.00,,,0.00,meteohub,2013-03-16 03:42:00,
2013-03-15 21:02:00,53.2,48.2,30.07,SSW,208,3.0,6.0,83,0.00,,,0.00,meteohub,2013-03-16 04:02:00,
2013-03-15 21:22:00,53.4,48.7,30.07,SSE,159,6.0,6.0,84,0.00,,,0.00,meteohub,2013-03-16 04:22:00,
2013-03-15 21:42:00,53.4,48.4,30.07,South,190,3.0,6.0,83,0.00,,,0.00,meteohub,2013-03-16 04:42:00,
2013-03-15 22:02:00,53.2,48.2,30.07,South,181,5.0,6.0,83,0.00,,,0.00,meteohub,2013-03-16 05:02:00,
2013-03-15 22:22:00,53.6,48.6,30.07,SE,130,4.0,4.0,83,0.00,,,0.00,meteohub,2013-03-16 05:22:00,
2013-03-15 22:42:00,53.4,48.4,30.07,SSE,163,4.0,8.0,83,0.00,,,0.00,meteohub,2013-03-16 05:42:00,
2013-03-15 23:02:00,53.6,48.6,30.07,SE,144,4.0,8.0,83,0.00,,,0.00,meteohub,2013-03-16 06:02:00,
2013-03-15 23:22:00,53.6,48.6,30.04,South,172,3.0,7.0,83,0.00,,,0.00,meteohub,2013-03-16 06:22:00,
2013-03-15 23:42:00,53.2,47.8,30.04,SSW,197,4.0,6.0,82,0.00,,,0.00,meteohub,2013-03-16 06:42:00,